Simultaneous Nadir Overpasses (SNOs) Predictions

Prediction of SNOs between LANDSAT-8 and METOP-B Satellite Orbit:

Table of predicted SNOs for the next 14.0 days since TLE Epoch: 3/17/2018
Index Date (LANDSAT-8) Time (LANDSAT-8) Lat,Lon (LANDSAT-8) SZA (LANDSAT-8 ) Date (METOP-B) Time (METOP-B) Lat,Lon (METOP-B) SZA (METOP-B ) Distance(km) Time Diff (sec)
1 03/18/2018 22:58:00 -81.14, 55.11 96.38 03/18/2018 22:57:22 -81.14, 55.11 96.39 0.20 38
2 03/18/2018 23:47:25 81.16,-136.80 83.68 03/18/2018 23:48:01 81.16,-136.76 83.69 0.68 36
3 03/21/2018 18:32:14 -81.14, 121.64 97.46 03/21/2018 18:31:43 -81.14, 121.72 97.46 1.35 31
4 03/21/2018 19:21:39 81.17, -70.30 82.60 03/21/2018 19:22:22 81.17, -70.18 82.63 2.00 43
5 03/24/2018 14:06:28 -81.15,-171.87 98.53 03/24/2018 14:06:04 -81.15,-171.70 98.52 2.88 24
6 03/24/2018 14:55:52 81.17, -3.83 81.52 03/24/2018 14:56:43 81.16, -4.01 81.52 3.17 51
7 03/27/2018 09:40:41 -81.15,-105.41 99.61 03/27/2018 09:40:25 -81.14,-105.52 99.63 1.94 16
8 03/27/2018 10:30:06 81.17, 62.61 80.44 03/27/2018 10:31:04 81.17, 62.53 80.45 1.49 58
9 03/30/2018 05:14:55 -81.15, -38.98 100.68 03/30/2018 05:14:46 -81.15, -38.97 100.68 0.11 9




NCC Satellite Simultaneous Nadir Overpasses (SNOs) Prediction Service
